User: anonymous   Login
Location: Unspecified
(0.0000°N, 0.0000°E)
Time: 10:59:24
(UTC+00:00)
Language:

Isis 2 - Orbit

View from above orbital plane
View from above orbital plane
View from above satellite
View from above satellite

Ground track
Ground track

The orbit data is extracted from the following two-line orbital elements,

1  5104U 71024A   18322.81996317 +.00000001 +00000-0 -51132-4 0  9992
2  5104 088.1711 037.9222 0044775 145.0413 353.8667 12.67838865204073
Epoch (UTC): 18 November 2018 19:40:44
Eccentricity: 0.0044775
inclination: 88.1711°
perigee height: 1356 km
apogee height: 1425 km
right ascension of ascending node: 37.9222°
argument of perigee: 145.0413°
revolutions per day: 12.67838865
mean anomaly at epoch: 353.8667°
orbit number at epoch: 20407

The dashed part of the orbit path shows where the satellite is in the earth's shadow,  

DLR